Location: Greenwich
(51.4790°N, 0.0090°E)
Time: 14:01:54
(UTC+01:00)

Altair - Pass Details

Date: 23 June 2025
Orbit: 1502 x 1682 km, 47.2° (Epoch: 19 July)

Event Time Altitude Azimuth Distance (km) Brightness Sun altitude
Rises 00:53:36 0° 250° (WSW) 4,640 9.8 -15.1°
Reaches altitude 10° 00:56:36 10° 248° (WSW) 3,669 9.3 -15.1°
Maximum altitude 01:05:43 66° 169° (S) 1,661 7.4 -15.1°
Drops below altitude 10° 01:15:09 10° 90° (E) 3,791 9.6 -15.0°
Sets 01:18:19 0° 88° (E) 4,802 10.2 -15.0°
